Location: Choisy
(48.7685°N, 2.4187°E)
Time: 19:40:28
(UTC+00:00)

Envisat - Pass Details

Date: 01 March 2024
Orbit: 762 x 764 km, 98.3° (Epoch: 24 April)

Event Time Altitude Azimuth Distance (km) Brightness Sun altitude
Rises 02:01:03 0° 28° (NNE) 3,242 7.0 -41.7°
Reaches altitude 10° 02:04:11 10° 48° (NE) 2,310 6.1 -41.4°
Enters shadow 02:05:45 15° 65° (ENE) 1,991 5.6 -41.2°
